TimeEST,TemperatureF,Dew PointF,Humidity,Sea Level PressureIn,VisibilityMPH,Wind Direction,Wind SpeedMPH,Gust SpeedMPH,PrecipitationIn,Events,Conditions,WindDirDegrees,DateUTC
12:15 AM,46.4,46.4,100,30.11,0.2,Calm,Calm,-,N/A,Fog,Fog,0,2013-01-13 05:15:00
12:35 AM,48.2,46.4,93,30.11,0.2,Calm,Calm,-,N/A,Fog,Fog,0,2013-01-13 05:35:00
12:55 AM,48.2,46.4,93,30.11,0.2,Calm,Calm,-,N/A,Fog,Fog,0,2013-01-13 05:55:00
1:15 AM,48.2,46.4,93,30.10,0.2,Calm,Calm,-,N/A,Fog,Fog,0,2013-01-13 06:15:00
1:35 AM,48.2,46.4,93,30.10,0.2,Calm,Calm,-,N/A,Fog,Fog,0,2013-01-13 06:35:00
1:55 AM,48.2,46.4,93,30.11,0.2,Calm,Calm,-,N/A,Fog,Fog,0,2013-01-13 06:55:00
2:15 AM,48.2,46.4,93,30.11,0.2,Calm,Calm,-,N/A,Fog,Fog,0,2013-01-13 07:15:00
2:35 AM,48.2,46.4,93,30.10,0.2,Calm,Calm,-,N/A,Fog,Fog,0,2013-01-13 07:35:00
2:55 AM,48.2,46.4,93,30.09,0.2,Calm,Calm,-,N/A,Fog,Fog,0,2013-01-13 07:55:00
3:15 AM,48.2,46.4,93,30.09,0.2,Calm,Calm,-,N/A,Fog,Fog,0,2013-01-13 08:15:00
3:55 AM,48.2,46.4,93,30.07,0.5,Calm,Calm,-,N/A,Fog,Fog,0,2013-01-13 08:55:00
4:15 AM,48.2,46.4,93,30.07,0.5,Calm,Calm,-,N/A,Fog,Fog,0,2013-01-13 09:15:00
4:35 AM,48.2,48.2,100,30.07,0.5,Calm,Calm,-,N/A,Fog,Fog,0,2013-01-13 09:35:00
4:55 AM,48.2,48.2,100,30.06,0.2,Calm,Calm,-,N/A,Fog,Fog,0,2013-01-13 09:55:00
5:15 AM,48.2,48.2,100,30.06,0.2,Calm,Calm,-,N/A,Fog,Fog,0,2013-01-13 10:15:00
5:35 AM,48.2,48.2,100,30.06,0.5,Calm,Calm,-,N/A,Fog,Fog,0,2013-01-13 10:35:00
5:55 AM,50.0,48.2,94,30.06,0.2,Calm,Calm,-,N/A,Fog,Fog,0,2013-01-13 10:55:00
6:15 AM,50.0,48.2,94,30.06,0.2,Calm,Calm,-,N/A,Fog,Fog,0,2013-01-13 11:15:00
6:35 AM,50.0,48.2,94,30.07,0.2,Calm,Calm,-,N/A,Fog,Fog,0,2013-01-13 11:35:00
6:55 AM,50.0,48.2,94,30.07,0.2,Calm,Calm,-,N/A,Fog,Fog,0,2013-01-13 11:55:00
7:15 AM,50.0,48.2,94,30.07,0.2,Calm,Calm,-,N/A,Fog,Fog,0,2013-01-13 12:15:00
7:35 AM,50.0,48.2,94,30.07,0.2,Calm,Calm,-,N/A,Fog,Fog,0,2013-01-13 12:35:00
7:55 AM,50.0,48.2,94,30.07,0.2,Calm,Calm,-,N/A,Fog,Fog,0,2013-01-13 12:55:00
8:15 AM,50.0,48.2,94,30.08,0.2,Calm,Calm,-,N/A,Fog,Fog,0,2013-01-13 13:15:00
8:35 AM,51.8,50.0,94,30.09,0.2,Calm,Calm,-,N/A,Fog,Fog,0,2013-01-13 13:35:00
8:55 AM,51.8,50.0,94,30.08,0.2,South,3.5,-,N/A,Fog,Fog,170,2013-01-13 13:55:00
9:15 AM,51.8,51.8,100,30.08,0.2,SSE,3.5,-,0.01,Fog,Fog,160,2013-01-13 14:15:00
9:35 AM,51.8,51.8,100,30.09,0.2,Calm,Calm,-,0.01,Fog,Fog,0,2013-01-13 14:35:00
9:55 AM,53.6,51.8,94,30.09,0.2,SSW,4.6,-,0.01,Fog,Fog,210,2013-01-13 14:55:00
10:15 AM,53.6,51.8,94,30.10,0.2,WSW,3.5,-,N/A,Fog,Fog,240,2013-01-13 15:15:00
10:35 AM,53.6,53.6,100,30.09,0.2,South,4.6,-,N/A,Fog,Fog,190,2013-01-13 15:35:00
10:55 AM,55.4,53.6,94,30.09,0.2,Calm,Calm,-,N/A,Fog,Fog,0,2013-01-13 15:55:00
11:15 AM,55.4,55.4,100,30.07,0.2,South,4.6,-,N/A,Fog,Fog,170,2013-01-13 16:15:00
11:35 AM,57.2,55.4,94,30.06,0.5,South,4.6,-,N/A,Fog,Fog,180,2013-01-13 16:35:00
11:55 AM,57.2,55.4,94,30.05,0.8,SSW,3.5,-,N/A,,Overcast,200,2013-01-13 16:55:00
12:15 PM,57.2,57.2,100,30.04,1.2,SSW,3.5,-,N/A,,Overcast,200,2013-01-13 17:15:00
12:35 PM,59.0,57.2,94,30.03,2.0,SW,3.5,-,N/A,,Overcast,220,2013-01-13 17:35:00
12:55 PM,59.0,57.2,94,30.02,2.5,SSW,3.5,-,N/A,,Overcast,210,2013-01-13 17:55:00
1:15 PM,59.0,57.2,94,30.01,3.0,SSW,4.6,-,N/A,,Overcast,210,2013-01-13 18:15:00
1:35 PM,60.8,57.2,88,30.01,4.0,South,4.6,-,N/A,,Overcast,190,2013-01-13 18:35:00
1:55 PM,60.8,60.8,100,30.01,7.0,WSW,6.9,-,N/A,,Overcast,240,2013-01-13 18:55:00
2:15 PM,62.6,59.0,88,30.01,7.0,SSW,3.5,-,N/A,,Scattered Clouds,210,2013-01-13 19:15:00
2:35 PM,64.4,59.0,83,30.01,10.0,SW,3.5,-,N/A,,Clear,220,2013-01-13 19:35:00
2:55 PM,66.2,60.8,83,30.00,10.0,South,3.5,-,N/A,,Clear,170,2013-01-13 19:55:00
3:15 PM,68.0,60.8,78,30.01,10.0,South,4.6,-,N/A,,Clear,190,2013-01-13 20:15:00
3:35 PM,68.0,60.8,78,30.01,10.0,South,3.5,-,N/A,,Clear,170,2013-01-13 20:35:00
3:55 PM,69.8,60.8,73,30.01,10.0,West,3.5,-,N/A,,Clear,270,2013-01-13 20:55:00
4:15 PM,66.2,60.8,83,30.01,10.0,Calm,Calm,-,N/A,,Clear,0,2013-01-13 21:15:00
4:35 PM,66.2,60.8,83,30.01,10.0,Calm,Calm,-,N/A,,Clear,0,2013-01-13 21:35:00
4:55 PM,64.4,60.8,88,30.01,10.0,Calm,Calm,-,N/A,,Clear,0,2013-01-13 21:55:00
5:15 PM,66.2,59.0,78,30.02,10.0,South,3.5,-,N/A,,Clear,170,2013-01-13 22:15:00
5:35 PM,66.2,59.0,78,30.01,10.0,South,3.5,-,N/A,,Clear,170,2013-01-13 22:35:00
5:55 PM,64.4,59.0,83,30.01,10.0,SSE,4.6,-,N/A,,Clear,150,2013-01-13 22:55:00
6:15 PM,64.4,59.0,83,30.02,10.0,South,3.5,-,N/A,,Clear,170,2013-01-13 23:15:00
6:35 PM,64.4,59.0,83,30.01,10.0,SSE,4.6,-,N/A,,Scattered Clouds,160,2013-01-13 23:35:00
6:55 PM,64.4,60.8,88,30.01,10.0,SSE,4.6,-,N/A,,Mostly Cloudy,160,2013-01-13 23:55:00
7:15 PM,64.4,59.0,83,30.01,10.0,SSE,4.6,-,N/A,,Mostly Cloudy,150,2013-01-14 00:15:00
7:35 PM,62.6,59.0,88,30.00,10.0,Calm,Calm,-,N/A,,Scattered Clouds,0,2013-01-14 00:35:00
7:55 PM,62.6,59.0,88,30.00,10.0,SSE,3.5,-,N/A,,Scattered Clouds,150,2013-01-14 00:55:00
8:15 PM,62.6,59.0,88,29.99,10.0,SSE,3.5,-,N/A,,Scattered Clouds,150,2013-01-14 01:15:00
8:35 PM,60.8,57.2,88,30.00,10.0,Calm,Calm,-,N/A,,Scattered Clouds,0,2013-01-14 01:35:00
8:55 PM,62.6,59.0,88,29.99,10.0,Calm,Calm,-,N/A,,Scattered Clouds,0,2013-01-14 01:55:00
9:15 PM,62.6,59.0,88,29.99,10.0,South,4.6,-,N/A,,Clear,170,2013-01-14 02:15:00
9:35 PM,62.6,59.0,88,29.99,10.0,South,6.9,-,N/A,,Clear,170,2013-01-14 02:35:00
9:55 PM,62.6,59.0,88,29.98,10.0,South,5.8,-,N/A,,Clear,180,2013-01-14 02:55:00
10:15 PM,62.6,59.0,88,29.99,10.0,South,5.8,-,N/A,,Clear,190,2013-01-14 03:15:00
10:35 PM,62.6,59.0,88,29.99,10.0,South,8.1,-,N/A,,Clear,190,2013-01-14 03:35:00
10:55 PM,62.6,57.2,82,29.99,10.0,South,8.1,-,N/A,,Scattered Clouds,190,2013-01-14 03:55:00
11:15 PM,62.6,57.2,82,29.99,10.0,South,5.8,-,N/A,,Scattered Clouds,190,2013-01-14 04:15:00
11:35 PM,62.6,57.2,82,29.99,10.0,South,6.9,-,N/A,,Mostly Cloudy,190,2013-01-14 04:35:00
11:55 PM,62.6,57.2,82,30.00,10.0,South,8.1,-,N/A,,Scattered Clouds,190,2013-01-14 04:55:00